ROMMA est une association bénévole à but non lucratif. Votre soutien est indispensable : ADHERER à ROMMA ou FAIRE un DON

Val-d'Isère - (73, Savoie)

Haute-Maurienne (1850 m)   Longitude: 6° 58' 52'' E   Latitude: 45° 26' 53'' N Station partenaire n°93
 

Détail journalier du     <<     >>

Température Precipitation Humidité Vent Dir Rafale Dir. rafale Ensol.
Heure (°C) (mm) (%) (km/h) (km/h) (min)
01:00 -5.10722SE6SE0
02:00 -5.40722E10E0
03:00 -5.00684E15E0
04:00 -4.30722ONO6SSE0
05:00 -1.30692ESE15SE0
06:00 -0.50626E18NE0
07:00 -0.70636E13NNE0
08:00 -0.205810ESE16ESE30
09:00 0.30576E21S60
10:00 2.90485E16SSE60
11:00 3.60476NNE26O60
12:00 4.90456NE31NNO60
13:00 6.20426NNE27NNO60
14:00 4.50506E27NNO0
15:00 5.60507E34NO0
16:00 3.405811NO37NNO0
17:00 3.805411NO31NO0
18:00 4.00506ENE24NNE0
19:00 3.80506NE16ENE0
20:00 2.80536ENE19E0
21:00 1.90593ENE15ONO0
22:00 1.90614E15NNE0
23:00 1.60625NE18NNO0
minuit 1.60634ESE16SSE0

Graphique du 15-04-2019

 

Serveur OMMA